#timestamp,LO_Frequency,Hit,StdDev 
1506762015.4,286047002.0,N
1506762035.2,286047001.4,N
1506762055.0,286046999.7,N
1506762055.9,286046999.7,N
1506762075.8,286047000.7,N
1506762095.6,286047007.6,Y
1506762115.4,286047003.9,P
1506762135.3,286047003.7,P
1506762155.1,286047000.0,N
1506762175.8,286046999.4,N
1506762195.7,286047001.7,N
1506762215.5,286047000.7,N
1506762235.3,286046998.8,N
1506762255.2,286047000.1,N
1506762275.9,286047003.8,N
1506762295.7,286047002.8,N
1506762315.6,286047002.2,N
1506762335.4,286046999.0,N
1506762355.2,286047000.4,N
1506762375.1,286046995.7,N
1506762376.0,286046995.7,N
1506762395.8,286046999.2,N
1506762415.6,286046995.3,N
1506762435.5,286046996.8,N
1506762455.3,286046997.0,N
1506762475.1,286046999.6,N
1506762495.8,286046998.1,N
1506762515.7,286047000.1,N
1506762535.5,286046997.3,N
1506762555.3,286046996.6,N
1506762575.2,286046999.2,N
1506762595.9,286046998.4,N
1506762615.7,286046997.1,N
1506762635.6,286046996.9,N
1506762655.4,286046995.4,N
1506762675.2,286046997.0,N
1506762695.1,286046996.0,N
1506762696.0,286046996.0,N
1506762715.8,286046990.6,Y
1506762735.6,286046991.3,P
1506762755.5,286046993.4,N
1506762775.3,286046991.8,N
1506762795.1,286046993.6,N
1506762815.9,286046993.4,N
1506762835.7,286046996.9,N
1506762855.5,286046997.7,N
1506762875.3,286047000.8,N
1506762895.2,286047000.3,N
1506762915.0,286047003.5,N
1506762915.9,286047003.5,N
1506762935.8,286047001.3,N
1506762955.6,286047001.0,N
1506762975.4,286047002.1,N
1506762995.2,286046999.9,N
1506763015.1,286046998.6,N
1506763016.0,286046998.6,N
1506763035.8,286046999.2,N
1506763055.6,286046997.4,N
1506763075.5,286046995.9,N
1506763095.3,286046998.0,N
1506763115.1,286046996.9,N
1506763135.9,286046999.4,N
1506763155.7,286046999.5,N
1506763175.5,286046996.4,N
1506763195.4,286046994.0,N
1506763215.2,286046991.7,N
1506763235.0,286046996.1,N
1506763235.9,286046996.1,N
1506763255.8,286046996.4,N
1506763275.6,286047000.9,N
1506763295.4,286047000.6,N
1506763315.2,286046999.3,N
1506763335.1,286046994.2,N
1506763336.0,286046994.2,N
1506763355.8,286046994.7,N
1506763375.6,286046997.3,N
1506763395.5,286046996.6,N
1506763415.3,286047001.1,N
1506763435.1,286046995.4,N
1506763455.9,286046993.9,N
1506763475.7,286046995.0,N
1506763495.5,286046995.2,N
1506763515.4,286046995.7,N
1506763535.2,286046993.1,N
1506763555.0,286046993.3,N
1506763555.9,286046993.3,N
1506763575.8,286046994.9,N
1506763595.6,286046995.4,N
1506763615.4,286046997.4,N
1506763635.3,286046995.4,N
1506763655.1,286046998.0,N
1506763656.0,286046998.0,N
1506763675.8,286046994.1,N
1506763695.7,286046994.7,N
1506763715.5,286046996.0,N
1506763735.3,286046992.4,Y
1506763755.2,286046992.1,P
1506763775.9,286046997.6,N
1506763795.7,286046997.1,N
1506763815.6,286046994.1,N
1506763835.4,286046990.9,Y
1506763855.2,286046998.9,P
1506763875.1,286047004.1,N
1506763876.0,286047004.1,N
1506763895.8,286047000.6,N
1506763915.6,286047001.2,N
1506763935.5,286047000.9,N
1506763955.3,286047000.6,N
1506763975.1,286046998.3,N
1506763995.8,286046999.9,N
1506764015.7,286047001.8,N
1506764035.5,286047001.3,N
1506764055.3,286046998.5,N
1506764075.2,286046995.3,N
1506764095.9,286046999.4,N
1506764115.7,286046997.0,N
1506764135.6,286047000.7,N
1506764155.4,286046999.0,N
1506764175.2,286046999.0,N
1506764195.1,286046996.7,N
1506764196.0,286046996.7,N
1506764215.8,286046996.3,N
1506764235.6,286046994.2,N
1506764255.5,286046994.6,N
1506764275.3,286046994.6,N
1506764295.1,286046992.9,N
1506764315.8,286046991.2,N
1506764335.7,286046992.0,N
1506764355.5,286046994.4,N
1506764375.3,286046992.8,N
1506764395.2,286046991.7,N
1506764415.9,286046990.2,N
1506764435.7,286046993.9,N
1506764455.6,286046992.1,N
1506764475.4,286046997.6,N
1506764495.2,286046995.3,N
1506764515.1,286046995.2,N
1506764516.0,286046995.2,N
1506764535.8,286046995.3,N
1506764555.6,286046995.1,N
1506764575.5,286046992.4,N
1506764595.3,286046990.7,Y
1506764615.1,286046993.4,P
1506764635.9,286046996.5,P
1506764655.7,286046994.1,P
1506764675.5,286046995.5,Y
1506764695.4,286047003.7,P
1506764715.2,286047001.9,N
1506764735.0,286047001.7,N
1506764735.9,286047001.7,N
1506764755.8,286047002.3,N
1506764775.6,286047004.0,N
1506764795.4,286047004.0,N
1506764815.2,286047002.9,N
1506764835.1,286047007.1,N
1506764836.0,286047007.1,N
1506764855.8,286047004.9,N
1506764875.7,286047003.4,N
1506764895.5,286047005.6,N
1506764915.3,286047007.1,N
1506764935.1,286047006.4,N
1506764955.9,286047006.7,N
1506764975.7,286047006.0,N
1506764995.5,286047007.3,N
1506765015.4,286047006.0,N
1506765035.2,286047001.9,N
1506765055.0,286047003.8,N
1506765055.9,286047003.8,N
1506765075.8,286046999.8,N
1506765095.6,286047000.3,N
1506765115.4,286047001.9,N
1506765135.3,286047001.0,N
1506765155.1,286047002.2,N
1506765156.0,286047002.2,N
1506765175.8,286047001.5,N
1506765195.7,286046998.1,N
1506765215.5,286046999.1,N
1506765235.3,286047000.4,N
1506765255.1,286046998.8,N
1506765275.9,286046998.5,N
1506765295.3,286047000.7,N
1506765315.1,286047002.8,N
1506765335.8,286047000.4,N
1506765355.7,286047000.7,N
1506765375.5,286047000.1,N
1506765395.3,286047000.2,N
1506765415.2,286047002.4,N
1506765435.9,286046999.0,N
1506765455.7,286046998.9,N
1506765475.6,286047002.1,N
1506765495.4,286047003.6,N
1506765515.2,286047001.3,N
1506765535.1,286047003.2,N
1506765536.0,286047003.2,N
1506765555.8,286046998.6,N
1506765575.6,286046998.8,N
1506765595.5,286047000.7,N
